Home   Weather   Eureka   Past weeks
Flag for USA

Past Weather in Eureka, Montana, USA — Yesterday and Last 2 Weeks

Now
56 °F

Mostly cloudy.


Feels Like: 54 °F
Forecast: 64 / 44 °F
Wind: 9 mph from South

Location: Kalispell - Glacier Park International

Current Time: Sep 20, 2019 at 2:59:35 pm

Latest Report: Sep 20, 2019 at 1:55 pm


Visibility: 10 mi

Pressure: 29.97 "Hg (27.28 "Hg at 787m altitude)

Humidity: 67%

Dew Point: 45 °F

Location of EurekaLocation

Past Weather in Eureka — Graph

°F

Eureka Temperature Yesterday

Maximum temperature yesterday: 62 °F (at 5:55 pm)
Minimum temperature yesterday: 47 °F (at 11:55 pm)
Average temperature yesterday: 53 °F

High & Low Weather Summary for the Past Weeks

 TemperatureHumidityPressure
High88 °F (Sep 5, 4:55 pm)100% (Sep 9, 5:55 am)30.29 "Hg (Sep 9, 5:55 am)
Low39 °F (Sep 15, 7:21 am)13% (Sep 5, 4:55 pm)29.62 "Hg (Sep 15, 6:55 pm)
Average56 °F74%29.95 "Hg
* Reported Sep 5 12:55 pm — Sep 20 12:55 pm, Eureka. Weather by CustomWeather, © 2019

Note: Actual official high and low records may vary slightly from our data, if they occured in-between our weather recording intervals... More about our weather records

Advertising

Eureka Weather History for the Previous 24 Hours

Scroll right to see more
 ConditionsComfort  
Time TempWeatherWind HumidityBarometerVisibility
12:55 pm
Fri, Sep 20
57 °FOvercast.6 mph64%29.95 "Hg10 mi
11:55 am55 °FPartly sunny.7 mph74%29.95 "Hg10 mi
10:55 am52 °FOvercast.No wind83%29.96 "Hg10 mi
9:55 am49 °FMore clouds than sun.No wind86%29.97 "Hg10 mi
8:55 am45 °FOvercast.3 mph97%29.97 "Hg10 mi
8:23 am44 °FCloudy.No wind96%29.95 "Hg10 mi
7:55 am44 °FFog.No wind93%29.97 "Hg6 mi
7:34 am44 °FFog.No wind93%29.96 "Hg1 mi
7:11 am44 °FFog.No wind93%29.95 "Hg5 mi
6:55 am43 °FFog.No wind93%29.96 "Hg2 mi
6:32 am43 °FFog.No wind93%29.95 "Hg1 mi
6:22 am42 °FFog.No wind96%29.95 "Hg1 mi
5:55 am42 °FFog.No wind96%29.95 "Hg3 mi
5:32 am42 °FFog.No wind92%29.95 "Hg1 mi
5:23 am41 °FFog.No wind96%29.95 "Hg1 mi
5:15 am41 °FFog.No wind96%29.95 "Hg1 mi
4:55 am41 °FFog.No wind96%29.95 "Hg0 mi
3:55 am42 °FFog.No wind96%29.95 "Hg0 mi
3:38 am42 °FFog.No wind96%29.94 "Hg0 mi
3:22 am41 °FFog.No wind96%29.94 "Hg0 mi
3:06 am40 °FFog.No wind97%29.93 "Hg1 mi
2:40 am41 °FFog.No wind96%29.94 "Hg0 mi
2:24 am41 °FFog.No wind96%29.93 "Hg1 mi
1:55 am42 °FFog.No wind96%29.95 "Hg1 mi
1:37 am42 °FFog.3 mph96%29.93 "Hg1 mi
12:55 am44 °FPassing clouds.5 mph93%29.94 "Hg10 mi
11:55 pm
Thu, Sep 19
47 °FClear.No wind90%29.94 "Hg10 mi
10:55 pm49 °FMostly cloudy.No wind90%29.94 "Hg10 mi
9:55 pm49 °FPassing clouds.3 mph90%29.94 "Hg10 mi
8:55 pm50 °FClear.3 mph83%29.95 "Hg10 mi
7:55 pm54 °FClear.3 mph74%29.94 "Hg10 mi
6:55 pm59 °FOvercast.6 mph62%29.92 "Hg10 mi
5:55 pm62 °FPassing clouds.No wind56%29.91 "Hg10 mi
4:55 pm60 °FMostly cloudy.No wind58%29.91 "Hg10 mi
3:55 pm58 °FMore clouds than sun.No wind62%29.92 "Hg10 mi
2:55 pm58 °FOvercast.3 mph62%29.94 "Hg10 mi
Weather by CustomWeather, © 2019

See weather overview